Hoolehua, HI

12:06 PM HST on December 06, 2016 (GMT -1000)
Molokai

Weather History for PHMK - January, 2013

Change the Weather History Date:

Saturday, January 12, 2013

  Actual Average Record
Temperature  
Mean Temperature 75 °F -  
Max Temperature 80 °F 77 °F 85 °F (1977)
Min Temperature 66 °F 63 °F 53 °F (2005)
Cooling Degree Days 10    
Growing Degree Days 25 (Base 50)    
Moisture  
Dew Point 64 °F    
Average Humidity 74    
Maximum Humidity 84    
Minimum Humidity 54    
Precipitation  
Precipitation 0.00 in - - ()
Sea Level Pressure  
Sea Level Pressure 29.96 in    
Wind  
Wind Speed 7 mph (East)    
Max Wind Speed 10 mph    
Max Gust Speed 17 mph    
Visibility 10 miles    
Events Rain    
Averages and records for this station are not official NWS values.
T = Trace of Precipitation, MM = Missing Value Source: NWS Daily Summary

Daily Weather History Graph

Daily Weather History Graph

Search for Another Location

Airport or City:

Trip Planner

Search our weather history database for the weather conditions in past years. The results will help you decide how hot, cold, wet, or windy it might be!

Date:

Astronomy

Jan. 12, 2013 Rise Set
Actual Time 7:08 AM HST 6:05 PM HST
Civil Twilight 6:44 AM HST 6:29 PM HST
Nautical Twilight 6:16 AM HST 6:57 PM HST
Astronomical Twilight 5:49 AM HST 7:24 PM HST
Moon 7:48 AM HST (1/12) 7:31 PM HST (1/12)
Length of Visible Light 11h 45m
Length of Day
10h 57m
New Moon, 2% of the Moon is Illuminated
Jan 12
New Moon
Jan 18
First Quarter
Jan 26
Full
Feb 3
Last Quarter
Feb 9
New

Hourly Weather History & Observations

Time (HST) Temp. Heat Index Dew Point Humidity Pressure Visibility Wind Dir Wind Speed Gust Speed Precip Events Conditions
12:54 AM 71.1 °F - 66.0 °F 84% 29.93 in 10.0 mi NNE 9.2 mph - N/A   Clear
1:54 AM 71.1 °F - 66.0 °F 84% 29.94 in 9.0 mi NNE 6.9 mph - 0.00 in Rain Light Rain
2:54 AM 71.1 °F - 64.9 °F 81% 29.93 in 10.0 mi NE 8.1 mph - 0.00 in   Clear
3:54 AM 71.1 °F - 64.0 °F 78% 29.93 in 10.0 mi NE 6.9 mph - N/A   Clear
4:54 AM 70.0 °F - 64.9 °F 84% 29.92 in 10.0 mi NNE 9.2 mph - N/A   Clear
5:54 AM 70.0 °F - 64.9 °F 84% 29.94 in 10.0 mi NE 8.1 mph - N/A   Scattered Clouds
6:54 AM 70.0 °F - 64.9 °F 84% 29.95 in 10.0 mi NE 5.8 mph - N/A   Clear
7:54 AM 70.0 °F - 64.9 °F 84% 29.97 in 5.0 mi East 8.1 mph - 0.00 in Rain Light Rain
8:54 AM 72.0 °F - 66.0 °F 81% 29.99 in 10.0 mi Calm Calm - 0.00 in   Mostly Cloudy
9:54 AM 75.9 °F - 66.0 °F 71% 29.99 in 10.0 mi North 3.5 mph - N/A   Scattered Clouds
10:54 AM 79.0 °F - 62.1 °F 56% 29.96 in 10.0 mi SE 10.4 mph 17.3 mph N/A   Scattered Clouds
11:54 AM 80.1 °F 81.2 °F 62.1 °F 54% 29.94 in 10.0 mi SSE 9.2 mph - N/A   Scattered Clouds
12:54 PM 80.1 °F 81.5 °F 63.0 °F 56% 29.92 in 10.0 mi South 9.2 mph - N/A   Scattered Clouds
1:54 PM 80.1 °F 81.5 °F 63.0 °F 56% 29.91 in 10.0 mi SE 9.2 mph - N/A   Partly Cloudy
2:54 PM 79.0 °F - 61.0 °F 54% 29.91 in 10.0 mi South 10.4 mph - N/A   Clear
3:54 PM 79.0 °F - 62.1 °F 56% 29.92 in 10.0 mi SSE 10.4 mph - N/A   Partly Cloudy
4:54 PM 77.0 °F - 63.0 °F 62% 29.94 in 10.0 mi SSE 9.2 mph - N/A   Partly Cloudy
5:54 PM 75.0 °F - 64.9 °F 71% 29.96 in 10.0 mi SSE 5.8 mph - N/A   Partly Cloudy
6:54 PM 73.0 °F - 64.9 °F 76% 29.97 in 10.0 mi SSE 4.6 mph - N/A   Partly Cloudy
7:54 PM 73.0 °F - 66.0 °F 79% 29.98 in 10.0 mi Calm Calm - N/A   Mostly Cloudy
8:14 PM 71.6 °F - 66.2 °F 83% 29.98 in 10.0 mi East 3.5 mph - N/A   Scattered Clouds
8:54 PM 71.1 °F - 66.0 °F 84% 30.00 in 10.0 mi ESE 3.5 mph - N/A   Partly Cloudy
9:54 PM 70.0 °F - 64.9 °F 84% 30.00 in 10.0 mi ENE 3.5 mph - N/A   Partly Cloudy
10:54 PM 70.0 °F - 64.0 °F 81% 30.00 in 10.0 mi ENE 5.8 mph - N/A   Partly Cloudy
11:54 PM 66.9 °F - 62.1 °F 84% 30.00 in 10.0 mi ENE 4.6 mph - N/A   Clear